TG9ADI-20 Weather Reports


time (UTC)temp
F
wind
direction
speed
knots
gust
knots
rain 1hr
in
rain 24hr
in
rain mn
in
humidity
%
barometer
mb
20260502195552 83 180 11.3 0.0 0.00 0.00 0.00 68 1009.0
20260502194551 84 180 11.3 0.0 0.00 0.00 0.00 68 1010.0
20260502193550 84 180 11.3 0.0 0.00 0.00 0.00 68 1010.0
20260502192550 83 180 11.3 0.0 0.00 0.00 0.00 60 1011.0
20260502191549 84 180 11.3 0.0 0.00 0.00 0.00 42 1011.0
20260502190548 81 180 7.8 0.0 0.00 0.00 0.00 68 1011.0
20260502185548 82 180 7.8 0.0 0.00 0.00 0.00 68 1011.0
20260502184547 82 180 7.8 0.0 0.00 0.00 0.00 68 1011.0
20260502183547 83 180 7.8 0.0 0.00 0.00 0.00 68 1011.0
20260502182546 82 180 7.8 0.0 0.00 0.00 0.00 68 1012.0
20260502181545 82 180 7.8 0.0 0.00 0.00 0.00 42 1012.0
20260502180545 78 160 5.2 0.0 0.00 0.00 0.00 47 1012.0
20260502163537 76 164 3.5 3.5 0.00 0.00 0.00 50 1013.0
20260502162537 76 128 4.3 11.3 0.00 0.00 0.00 50 1014.0
20260502161536 76 158 2.6 9.6 0.00 0.00 0.00 50 1015.0
20260502160536 73 180 7.8 0.0 0.00 0.00 0.00 56 1014.0
20260502151532 73 180 7.8 0.0 0.00 0.00 0.00 56 1015.0
20260502150532 73 180 7.8 0.0 0.00 0.00 0.00 56 1015.0
20260502130524 66 200 3.5 0.0 0.00 0.00 0.00 82 1015.0
20260502123522 61 140 0.9 6.1 0.00 0.00 0.00 96 1014.0
20260502122521 61 138 2.6 7.0 0.00 0.00 0.00 96 1014.0
20260502121521 61 155 2.6 7.0 0.00 0.00 0.00 97 1014.0
20260502120520 62 172 3.5 9.6 0.00 0.00 0.00 97 1014.0
20260502115519 62 184 4.3 9.6 0.00 0.00 0.00 10 1014.0
20260502114519 59 188 4.3 12.2 0.00 0.00 0.00 98 1014.0
20260502113518 62 188 6.1 9.6 0.00 0.00 0.00 10 1014.0
20260502112517 60 194 7.0 11.3 0.00 0.00 0.00 96 1014.0
20260502111517 60 200 4.3 0.0 0.00 0.00 0.00 96 1014.0
20260502110516 60 200 4.3 0.0 0.00 0.00 0.00 96 1014.0
20260502105516 62 205 7.0 9.6 0.00 0.00 0.00 93 1014.0
20260502104515 62 205 7.0 9.6 0.00 0.00 0.00 93 1014.0
20260502103514 63 168 7.0 13.0 0.00 0.00 0.00 93 1014.0
20260502102514 59 216 7.0 13.0 0.00 0.00 0.00 96 1013.0
20260502101513 60 179 7.0 11.3 0.00 0.00 0.00 96 1013.0
20260502100512 62 179 8.7 12.2 0.00 0.00 0.00 93 1013.0
20260502091510 63 229 7.0 13.0 0.00 0.00 0.00 93 1013.0
20260502090509 59 193 7.0 15.6 0.00 0.00 0.00 98 1013.0
20260502071502 61 180 11.3 0.0 0.00 0.00 0.00 96 1014.0
20260502070501 64 180 11.3 0.0 0.00 0.00 0.00 93 1014.0
20260502065500 61 180 11.3 0.0 0.00 0.00 0.00 97 1014.0
20260502064500 62 180 11.3 0.0 0.00 0.00 0.00 97 1014.0
20260502063459 64 180 11.3 0.0 0.00 0.00 0.00 93 1013.0
20260502062459 61 180 11.3 0.0 0.00 0.00 0.00 98 1014.0
20260502061458 62 180 11.3 0.0 0.00 0.00 0.00 97 1014.0
20260502060457 62 200 9.6 18.2 0.00 0.00 0.00 10 1014.0
20260502055457 62 211 9.6 15.6 0.00 0.00 0.00 10 1014.0
20260502054456 62 188 8.7 14.8 0.00 0.00 0.00 10 1014.0
20260502053455 62 188 8.7 14.8 0.00 0.00 0.00 10 1014.0
20260502052455 62 192 7.0 12.2 0.00 0.00 0.00 10 1014.0
20260502051454 63 221 9.6 14.8 0.00 0.00 0.00 10 1014.0
20260502050453 63 186 7.0 12.2 0.00 0.00 0.00 10 1014.0
20260502045453 63 189 8.7 14.8 0.00 0.00 0.00 10 1014.0
20260502044452 63 196 7.0 12.2 0.00 0.00 0.00 10 1014.0
20260502043452 63 207 4.3 13.0 0.00 0.00 0.00 10 1014.0
20260502042451 63 153 6.1 13.0 0.00 0.00 0.00 10 1014.0
20260502041450 63 173 4.3 9.6 0.00 0.00 0.00 10 1014.0
20260502040450 63 119 4.3 12.2 0.00 0.00 0.00 10 1014.0
20260502035449 63 149 6.1 15.6 0.00 0.00 0.00 10 1014.0
20260502034449 63 184 4.3 15.6 0.00 0.00 0.00 10 1014.0
20260502033448 62 180 13.0 0.0 0.00 0.00 0.00 97 1014.0
20260502032447 62 180 13.0 0.0 0.00 0.00 0.00 97 1013.0
20260502031447 65 180 13.0 0.0 0.00 0.00 0.00 96 1013.0
20260502030446 65 180 13.0 0.0 0.00 0.00 0.00 96 1013.0
20260502025445 65 156 6.1 13.0 0.00 0.00 0.00 10 1013.0
20260502024445 63 198 9.6 15.6 0.00 0.00 0.00 10 1013.0
20260502023444 63 136 6.1 13.0 0.00 0.00 0.00 10 1013.0
20260502022444 65 161 7.0 14.8 0.00 0.00 0.00 10 1013.0
20260502021443 65 161 7.0 14.8 0.00 0.00 0.00 10 1013.0
20260502020443 63 142 7.0 15.6 0.00 0.00 0.00 10 1013.0
20260502015442 64 166 4.3 13.0 0.00 0.00 0.00 10 1013.0
20260502014440 66 130 4.3 12.2 0.00 0.00 0.00 10 1013.0
20260502013439 66 143 6.1 12.2 0.00 0.00 0.00 10 1013.0
20260502012439 64 209 4.3 7.0 0.00 0.00 0.00 10 1012.0
20260502011438 66 188 6.1 11.3 0.00 0.00 0.00 10 1012.0
20260502010438 66 178 7.0 9.6 0.00 0.00 0.00 10 1012.0
20260502005437 65 153 4.3 14.8 0.00 0.00 0.00 10 1012.0
20260502004436 65 150 4.3 15.6 0.00 0.00 0.00 10 1012.0
20260502003436 67 196 7.0 15.6 0.00 0.00 0.00 10 1012.0
20260502002435 67 119 7.0 12.2 0.00 0.00 0.00 10 1010.0
20260502001435 68 173 7.0 13.0 0.00 0.00 0.00 10 1010.0
20260502000434 69 128 6.1 14.8 0.00 0.00 0.00 10 1010.0
20260501235433 69 192 7.0 13.0 0.00 0.00 0.00 10 1010.0
20260501234433 69 220 17.4 0.0 0.00 0.00 0.00 90 1010.0
20260501233432 70 220 17.4 0.0 0.00 0.00 0.00 88 1010.0
20260501232431 71 220 17.4 0.0 0.00 0.00 0.00 86 1009.0
20260501231431 73 220 17.4 0.0 0.00 0.00 0.00 85 1009.0
20260501230430 73 220 17.4 0.0 0.00 0.00 0.00 85 1009.0
20260501225430 75 220 17.4 0.0 0.00 0.00 0.00 79 1009.0
20260501224429 75 220 17.4 0.0 0.00 0.00 0.00 77 1009.0
20260501223428 75 220 17.4 0.0 0.00 0.00 0.00 77 1009.0
20260501222428 75 220 17.4 0.0 0.00 0.00 0.00 79 1009.0
20260501221427 76 220 17.4 0.0 0.00 0.00 0.00 79 1009.0
20260501220426 75 249 8.7 18.2 0.00 0.00 0.00 10 1009.0
20260501215426 75 200 15.6 0.0 0.00 0.00 0.00 86 1009.0
20260501214425 75 200 15.6 0.0 0.00 0.00 0.00 86 1009.0
20260501213425 76 200 15.6 0.0 0.00 0.00 0.00 84 1009.0
20260501212424 76 200 15.6 0.0 0.00 0.00 0.00 83 1009.0
20260501211423 79 200 15.6 0.0 0.00 0.00 0.00 75 1009.0
20260501210423 79 200 15.6 0.0 0.00 0.00 0.00 75 1009.0
20260501205422 76 233 9.6 15.6 0.00 0.00 0.00 10 1009.0
20260501204421 76 223 7.0 14.8 0.00 0.00 0.00 10 1009.0
20260501203421 76 163 6.1 13.0 0.00 0.00 0.00 10 1009.0
20260501202420 76 155 4.3 13.0 0.00 0.00 0.00 10 1009.0
20260501201419 76 170 4.3 13.0 0.00 0.00 0.00 10 1009.0
20260501200419 77 210 9.6 0.0 0.00 0.00 0.00 79 1009.0